LZ3VG Weather Reports


time (UTC)temp
F
wind
direction
speed
knots
gust
knots
rain 1hr
in
rain 24hr
in
rain mn
in
humidity
%
barometer
mb
20260506192028 53 62 0.9 4.3 0.00 0.00 0.00 93 1017.0
20260506191035 53 38 1.7 2.6 0.00 0.00 0.00 94 1016.8
20260506190043 53 27 1.7 4.3 0.00 0.00 0.00 94 1016.9
20260506185035 53 61 1.7 4.3 0.00 0.00 0.00 94 1016.7
20260506184032 53 47 2.6 6.1 0.00 0.00 0.00 95 1016.7
20260506181526 53 41 1.7 4.3 0.00 0.00 0.00 94 1016.5
20260506180547 54 51 1.7 4.3 0.00 0.00 0.00 94 1016.5
20260506175536 54 50 1.7 4.3 0.00 0.00 0.00 93 1016.3
20260506174533 54 46 2.6 5.2 0.00 0.00 0.00 93 1016.2
20260506173539 54 44 2.6 5.2 0.00 0.00 0.00 92 1016.1
20260506172551 54 65 1.7 6.1 0.00 0.00 0.00 92 1016.3
20260506171540 55 34 2.6 6.1 0.00 0.00 0.00 92 1016.1
20260506170607 55 52 2.6 6.1 0.00 0.00 0.00 92 1016.0
20260506165559 55 71 2.6 6.1 0.00 0.00 0.00 90 1016.0
20260506164531 56 58 2.6 6.1 0.00 0.00 0.00 89 1015.9
20260506163540 56 40 2.6 7.0 0.00 0.00 0.00 87 1015.9
20260506162531 57 38 2.6 5.2 0.00 0.00 0.00 85 1016.0
20260506161543 57 49 3.5 8.7 0.00 0.00 0.00 83 1015.9
20260506160624 58 62 1.7 4.3 0.00 0.00 0.00 83 1015.9
20260506155524 58 41 2.6 6.1 0.00 0.00 0.00 83 1015.8
20260506154554 58 47 2.6 6.1 0.00 0.00 0.00 81 1015.9
20260506153523 59 49 2.6 7.0 0.00 0.00 0.00 79 1016.0
20260506152532 59 22 3.5 7.8 0.00 0.00 0.00 78 1015.9
20260506151539 59 59 3.5 6.1 0.00 0.00 0.00 77 1016.1
20260506150531 59 41 2.6 8.7 0.00 0.00 0.00 77 1016.1
20260506145541 59 36 2.6 6.1 0.00 0.00 0.00 77 1016.1
20260506144531 60 64 2.6 7.8 0.00 0.00 0.00 77 1016.2
20260506143555 60 52 2.6 6.1 0.00 0.00 0.00 75 1016.1
20260506142547 60 56 4.3 8.7 0.00 0.00 0.00 75 1016.3
20260506141540 61 54 3.5 7.8 0.00 0.00 0.00 73 1016.1
20260506140531 61 71 3.5 8.7 0.00 0.00 0.00 73 1016.2
20260506135543 61 48 3.5 9.6 0.00 0.00 0.00 72 1016.2
20260506134532 60 59 4.3 8.7 0.00 0.00 0.00 72 1016.1
20260506133556 62 41 4.3 9.6 0.00 0.00 0.00 69 1016.1
20260506132548 62 48 3.5 8.7 0.00 0.00 0.00 68 1016.0
20260506131523 62 34 4.3 9.6 0.00 0.00 0.00 66 1016.0
20260506130547 62 71 5.2 11.3 0.00 0.00 0.00 63 1016.1
20260506125524 63 54 3.5 7.0 0.00 0.00 0.00 61 1016.2
20260506124547 63 67 5.2 11.3 0.00 0.00 0.00 57 1016.2
20260506123524 64 47 5.2 9.6 0.00 0.00 0.00 54 1016.3
20260506122533 64 57 3.5 7.0 0.00 0.00 0.00 55 1016.4
20260506121523 64 51 3.5 9.6 0.00 0.00 0.00 57 1016.4
20260506120534 63 43 4.3 11.3 0.00 0.00 0.00 58 1016.4
20260506115540 63 42 2.6 7.8 0.00 0.00 0.00 59 1016.7
20260506114548 62 35 4.3 9.6 0.00 0.00 0.00 62 1016.7
20260506113539 62 50 5.2 12.2 0.00 0.00 0.00 62 1016.7
20260506112531 63 25 4.3 8.7 0.00 0.00 0.00 61 1016.7
20260506111523 63 40 3.5 11.3 0.00 0.00 0.00 60 1016.7
20260506110532 65 35 1.7 4.3 0.00 0.00 0.00 57 1016.8
20260506105524 64 50 2.6 7.8 0.00 0.00 0.00 57 1016.7
20260506104547 63 58 4.3 11.3 0.00 0.00 0.00 56 1016.9
20260506103600 63 52 4.3 7.8 0.00 0.00 0.00 55 1016.9
20260506102547 64 49 3.5 9.6 0.00 0.00 0.00 54 1016.8
20260506101601 63 51 3.5 6.1 0.00 0.00 0.00 57 1016.9
20260506100532 63 58 1.7 5.2 0.00 0.00 0.00 59 1016.9
20260506095541 64 62 2.6 6.1 0.00 0.00 0.00 57 1017.0
20260506094552 63 47 1.7 7.0 0.00 0.00 0.00 57 1017.0
20260506093704 63 53 2.6 7.0 0.00 0.00 0.00 58 1017.0
20260506092548 64 43 2.6 7.8 0.00 0.00 0.00 58 1017.0
20260506091540 63 40 1.7 2.6 0.00 0.00 0.00 58 1017.1
20260506090551 62 56 2.6 9.6 0.00 0.00 0.00 59 1017.0
20260506085524 61 69 1.7 7.0 0.00 0.00 0.00 63 1017.2
20260506084535 61 78 1.7 7.8 0.00 0.00 0.00 67 1017.1
20260506083544 60 56 1.7 4.3 0.00 0.00 0.00 69 1017.1
20260506082548 60 50 2.6 5.2 0.00 0.00 0.00 71 1017.0
20260506081541 58 50 3.5 7.8 0.00 0.00 0.00 74 1016.9
20260506080548 58 46 1.7 4.3 0.00 0.00 0.00 79 1016.9
20260506072636 56 55 2.6 6.1 0.00 0.00 0.00 79 1016.7
20260506071600 57 61 2.6 6.1 0.00 0.00 0.00 74 1016.7
20260506070532 60 76 3.5 7.8 0.00 0.00 0.00 67 1016.5
20260506062029 57 229 1.7 2.6 0.00 0.00 0.00 72 1016.4
20260506061053 55 9 0.9 1.7 0.00 0.00 0.00 74 1016.6
20260506051020 48 147 2.6 4.3 0.00 0.00 0.00 87 1016.4
20260506045037 45 218 1.7 2.6 0.00 0.00 0.00 90 1016.2
20260506044029 44 226 2.6 5.2 0.00 0.00 0.00 92 1016.2
20260506043020 44 245 3.5 5.2 0.00 0.00 0.00 91 1016.2
20260506042028 43 211 1.7 5.2 0.00 0.00 0.00 92 1016.2
20260506041021 42 232 3.5 6.1 0.00 0.00 0.00 93 1016.1
20260506040029 42 232 4.3 7.0 0.00 0.00 0.00 93 1016.1
20260506035041 42 234 3.5 6.1 0.00 0.00 0.00 94 1016.0
20260506034029 42 232 4.3 6.1 0.00 0.00 0.00 96 1015.9
20260506033040 42 226 2.6 6.1 0.00 0.00 0.00 97 1015.8
20260506032044 41 152 1.7 2.6 0.00 0.00 0.00 97 1015.8
20260506031037 41 199 2.6 6.1 0.00 0.00 0.00 97 1015.6
20260506030028 41 262 0.9 2.6 0.00 0.00 0.00 97 1015.5
20260506025020 41 232 3.5 5.2 0.00 0.00 0.00 98 1015.5
20260506024044 41 233 2.6 5.2 0.00 0.00 0.00 98 1015.7
20260506023036 42 227 3.5 5.2 0.00 0.00 0.00 98 1015.6
20260506022048 42 240 0.9 2.6 0.00 0.00 0.00 98 1015.5
20260506021021 42 237 1.7 5.2 0.00 0.00 0.00 98 1015.5
20260506020045 42 221 2.6 5.2 0.00 0.00 0.00 98 1015.6
20260506015036 43 174 2.6 5.2 0.00 0.00 0.00 98 1015.5
20260506014029 44 189 2.6 5.2 0.00 0.00 0.00 98 1015.4
20260506013020 44 171 0.9 1.7 0.00 0.00 0.00 98 1015.6
20260506012104 44 221 0.9 4.3 0.00 0.00 0.00 99 1015.7
20260506011020 44 20 0.0 0.9 0.00 0.00 0.00 99 1015.7
20260506010028 44 64 0.9 1.7 0.00 0.00 0.00 99 1015.8
20260506005021 44 84 0.9 1.7 0.00 0.00 0.00 98 1015.7
20260506004045 45 0.0 0.0 0.00 0.00 0.00 98 1015.7
20260506003036 45 67 0.0 0.9 0.00 0.00 0.00 98 1015.7
20260506002029 45 235 2.6 4.3 0.00 0.00 0.00 98 1015.8
20260506001021 45 118 0.0 1.7 0.00 0.00 0.00 97 1015.7
20260506000044 46 108 0.9 1.7 0.00 0.00 0.00 96 1015.6
20260505235037 46 105 0.0 1.7 0.00 0.00 0.00 96 1015.7
20260505234028 46 259 1.7 4.3 0.00 0.00 0.00 95 1015.9
20260505233020 46 230 2.6 4.3 0.00 0.00 0.00 96 1015.9
20260505232049 46 255 2.6 4.3 0.00 0.00 0.00 95 1016.1
20260505231020 47 229 2.6 5.2 0.00 0.00 0.00 94 1016.2
20260505230030 46 121 1.7 2.6 0.00 0.00 0.00 92 1016.3
20260505225020 47 14 0.0 0.9 0.00 0.00 0.00 93 1016.3
20260505224105 49 350 0.9 1.7 0.00 0.00 0.00 94 1016.5
20260505223021 50 26 0.0 0.9 0.00 0.00 0.00 95 1016.6
20260505222105 51 52 0.0 1.7 0.00 0.00 0.00 95 1016.4
20260505221036 52 0.0 0.0 0.00 0.00 0.00 95 1016.6
20260505220055 52 43 0.9 1.7 0.00 0.00 0.00 94 1016.6
20260505215021 52 47 0.9 1.7 0.00 0.00 0.00 92 1016.6
20260505214045 53 49 0.9 1.7 0.00 0.00 0.00 90 1016.5
20260505213021 52 7 0.9 1.7 0.00 0.00 0.00 88 1016.4
20260505212044 52 28 0.9 1.7 0.00 0.00 0.00 89 1016.6
20260505211037 53 28 0.9 2.6 0.00 0.00 0.00 89 1016.5
20260505210028 53 23 0.9 2.6 0.00 0.00 0.00 86 1016.5
20260505205021 53 17 1.7 4.3 0.00 0.00 0.00 81 1016.6
20260505204044 53 9 1.7 2.6 0.00 0.00 0.00 75 1016.5
20260505203036 53 47 0.9 1.7 0.00 0.00 0.00 73 1016.6
20260505202029 53 52 0.0 1.7 0.00 0.00 0.00 74 1016.5
20260505201021 52 38 0.0 0.9 0.00 0.00 0.00 78 1016.5
20260505200045 53 162 1.7 2.6 0.00 0.00 0.00 84 1016.6
20260505195037 54 64 1.7 4.3 0.00 0.00 0.00 89 1016.4
20260505194028 54 60 1.7 4.3 0.00 0.00 0.00 89 1016.3
20260505193037 54 34 0.9 2.6 0.00 0.00 0.00 90 1016.2